Location: Haieshausen
(51.8387°N, 9.9720°E)
Time: 03:48:43
(UTC+00:00)

SL-08 R/B - Pass Details

Date: 14 July 2020
Orbit: 943 x 1009 km, 83.0° (Epoch: 10 August)

Event Time Altitude Azimuth Distance (km) Brightness Sun altitude
Exits shadow 01:28:13 14° 190° (S) 2,466 6.0 -11.8°
Maximum altitude 01:33:47 87° 280° (W) 974 4.5 -11.4°
Drops below altitude 10° 01:39:58 10° 10° (N) 2,696 8.0 -10.9°
Sets 01:42:27 0° 11° (N) 3,639 8.9 -10.7°
